Weather History for Fosston, MN

Change the Weather History Date:

Tuesday, July 16, 2013

  Actual Average Record
Temperature  
Mean Temperature 78 °F -  
Max Temperature 87 °F 82 °F 98 °F (2006)
Min Temperature 68 °F 56 °F 35 °F (2005)
Cooling Degree Days 12    
Growing Degree Days 28 (Base 50)    
Moisture  
Dew Point 66 °F    
Average Humidity 73    
Maximum Humidity 88    
Minimum Humidity 55    
Precipitation  
Precipitation 0.00 in - - ()
Sea Level Pressure  
Sea Level Pressure 30.11 in    
Wind  
Wind Speed 11 mph (South)    
Max Wind Speed 17 mph    
Max Gust Speed 25 mph    
Visibility 10 miles    
Events      
Averages and records for this station are not official NWS values.
T = Trace of Precipitation, MM = Missing Value Source: NWS Daily Summary

Daily Weather History Graph

Daily Weather History Graph

Search for Another Location

Airport:

Trip Planner

Search our weather history database for the weather conditions in past years. The results will help you decide how hot, cold, wet, or windy it might be!

Date:

Astronomy

Jul. 16, 2013 Rise Set
Actual Time 5:42 AM CDT 9:15 PM CDT
Civil Twilight 5:03 AM CDT 9:53 PM CDT
Nautical Twilight 4:12 AM CDT 10:45 PM CDT
Astronomical Twilight 3:02 AM CDT 11:54 PM CDT
Moon 2:48 PM CDT (7/16) 12:25 AM CDT (7/16)
Length of Visible Light 16h 50m
Length of Day
15h 33m
First Quarter, 56% of the Moon is Illuminated
Jul 16
First Quarter
Jul 22
Full
Jul 29
Last Quarter
Aug 6
New
Aug 14
First Quarter

Hourly Weather History & Observations

Time (CDT) Temp. Heat Index Dew Point Humidity Pressure Visibility Wind Dir Wind Speed Gust Speed Precip Events Conditions
12:15 AM 69.8 °F - 64.4 °F 83% 30.10 in 10.0 mi SSE 8.1 mph - N/A   Clear
12:35 AM 69.8 °F - 64.4 °F 83% 30.10 in 10.0 mi SSE 8.1 mph - N/A   Clear
12:55 AM 69.8 °F - 64.4 °F 83% 30.10 in 10.0 mi SSE 6.9 mph - N/A   Clear
1:15 AM 68.0 °F - 64.4 °F 88% 30.10 in 10.0 mi SSE 6.9 mph - N/A   Clear
1:35 AM 69.8 °F - 64.4 °F 83% 30.10 in 10.0 mi SSE 6.9 mph - N/A   Clear
1:55 AM 69.8 °F - 64.4 °F 83% 30.10 in 10.0 mi South 10.4 mph - N/A   Clear
2:15 AM 69.8 °F - 64.4 °F 83% 30.10 in 10.0 mi South 8.1 mph - N/A   Clear
2:35 AM 69.8 °F - 64.4 °F 83% 30.09 in 10.0 mi SSE 9.2 mph - N/A   Clear
2:55 AM 69.8 °F - 64.4 °F 83% 30.09 in 10.0 mi South 9.2 mph - N/A   Clear
3:15 AM 69.8 °F - 64.4 °F 83% 30.08 in 10.0 mi South 10.4 mph - N/A   Clear
3:35 AM 69.8 °F - 64.4 °F 83% 30.08 in 10.0 mi South 10.4 mph - N/A   Clear
3:55 AM 69.8 °F - 64.4 °F 83% 30.08 in 10.0 mi South 10.4 mph 16.1 mph N/A   Clear
4:15 AM 69.8 °F - 64.4 °F 83% 30.08 in 10.0 mi South 9.2 mph - N/A   Clear
4:35 AM 68.0 °F - 64.4 °F 88% 30.08 in 10.0 mi South 9.2 mph - N/A   Clear
4:55 AM 68.0 °F - 64.4 °F 88% 30.08 in 10.0 mi South 10.4 mph - N/A   Clear
5:15 AM 68.0 °F - 64.4 °F 88% 30.08 in 10.0 mi South 11.5 mph 18.4 mph N/A   Clear
5:35 AM 69.8 °F - 64.4 °F 83% 30.08 in 10.0 mi South 10.4 mph - N/A   Clear
5:55 AM 69.8 °F - 64.4 °F 83% 30.08 in 10.0 mi South 11.5 mph - N/A   Clear
6:15 AM 69.8 °F - 64.4 °F 83% 30.08 in 10.0 mi South 11.5 mph - N/A   Clear
6:35 AM 69.8 °F - 64.4 °F 83% 30.08 in 10.0 mi South 13.8 mph 20.7 mph N/A   Clear
6:55 AM 71.6 °F - 64.4 °F 78% 30.08 in 10.0 mi South 13.8 mph - N/A   Scattered Clouds
7:15 AM 71.6 °F - 64.4 °F 78% 30.09 in 10.0 mi South 12.7 mph 19.6 mph N/A   Scattered Clouds
7:35 AM 71.6 °F - 64.4 °F 78% 30.09 in 7.0 mi South 15.0 mph 20.7 mph N/A   Clear
7:55 AM 71.6 °F - 64.4 °F 78% 30.09 in 7.0 mi SSW 15.0 mph - N/A   Scattered Clouds
8:15 AM 71.6 °F - 66.2 °F 83% 30.09 in 10.0 mi SSW 15.0 mph 20.7 mph N/A   Scattered Clouds
8:35 AM 71.6 °F - 66.2 °F 83% 30.10 in 7.0 mi SSW 15.0 mph - N/A   Scattered Clouds
8:55 AM 73.4 °F - 66.2 °F 78% 30.09 in 10.0 mi SSW 13.8 mph 19.6 mph N/A   Scattered Clouds
9:15 AM 75.2 °F - 68.0 °F 78% 30.09 in 10.0 mi South 16.1 mph - N/A   Scattered Clouds
9:35 AM 75.2 °F - 68.0 °F 78% 30.08 in 10.0 mi South 12.7 mph - N/A   Scattered Clouds
9:55 AM 78.8 °F - 66.2 °F 65% 30.09 in 10.0 mi SSW 15.0 mph 19.6 mph N/A   Clear
10:15 AM 78.8 °F - 68.0 °F 69% 30.09 in 10.0 mi SSW 13.8 mph 18.4 mph N/A   Clear
10:35 AM 78.8 °F - 66.2 °F 65% 30.09 in 10.0 mi SSW 15.0 mph - N/A   Clear
10:55 AM 78.8 °F - 66.2 °F 65% 30.10 in 10.0 mi SSW 16.1 mph - N/A   Clear
11:16 AM 78.8 °F - 66.2 °F 65% 30.10 in 10.0 mi SSW 17.3 mph 20.7 mph N/A   Clear
11:35 AM 80.6 °F 82.7 °F 66.2 °F 61% 30.10 in 10.0 mi SSW 15.0 mph 21.9 mph N/A   Clear
11:55 AM 80.6 °F 82.7 °F 66.2 °F 61% 30.11 in 10.0 mi SSW 16.1 mph 20.7 mph N/A   Clear
12:16 PM 80.6 °F 83.2 °F 68.0 °F 65% 30.11 in 10.0 mi SW 15.0 mph - N/A   Clear
12:35 PM 82.4 °F 86.3 °F 69.8 °F 66% 30.12 in 10.0 mi SW 13.8 mph - N/A   Clear
12:55 PM 82.4 °F 86.3 °F 69.8 °F 66% 30.12 in 10.0 mi SSW 15.0 mph 19.6 mph N/A   Clear
1:16 PM 82.4 °F 86.3 °F 69.8 °F 66% 30.12 in 10.0 mi SW 15.0 mph 21.9 mph N/A   Clear
1:35 PM 84.2 °F 87.3 °F 68.0 °F 58% 30.11 in 10.0 mi SW 16.1 mph 20.7 mph N/A   Clear
1:55 PM 84.2 °F 86.6 °F 66.2 °F 55% 30.10 in 10.0 mi SSW 17.3 mph 25.3 mph N/A   Clear
2:16 PM 84.2 °F 87.3 °F 68.0 °F 58% 30.10 in 10.0 mi SSW 17.3 mph 23.0 mph N/A   Clear
2:35 PM 84.2 °F 88.4 °F 69.8 °F 62% 30.10 in 10.0 mi South 17.3 mph - N/A   Clear
2:55 PM 84.2 °F 88.4 °F 69.8 °F 62% 30.10 in 10.0 mi SSW 15.0 mph 23.0 mph N/A   Clear
3:16 PM 84.2 °F 87.3 °F 68.0 °F 58% 30.10 in 10.0 mi SSW 15.0 mph 23.0 mph N/A   Clear
3:35 PM 84.2 °F 87.3 °F 68.0 °F 58% 30.10 in 10.0 mi SSW 16.1 mph 20.7 mph N/A   Clear
3:55 PM 84.2 °F 87.3 °F 68.0 °F 58% 30.10 in 10.0 mi SSW 16.1 mph 19.6 mph N/A   Clear
4:15 PM 86.0 °F 89.4 °F 68.0 °F 55% 30.10 in 10.0 mi SSW 17.3 mph 20.7 mph N/A   Clear
4:35 PM 86.0 °F 89.4 °F 68.0 °F 55% 30.10 in 10.0 mi SSW 15.0 mph 19.6 mph N/A   Clear
4:55 PM 86.0 °F 90.4 °F 69.8 °F 58% 30.10 in 10.0 mi SSW 15.0 mph 20.7 mph N/A   Clear
5:15 PM 86.0 °F 89.4 °F 68.0 °F 55% 30.11 in 10.0 mi SSW 16.1 mph 23.0 mph N/A   Clear
5:35 PM 87.8 °F 92.6 °F 69.8 °F 55% 30.12 in 10.0 mi SW 12.7 mph 19.6 mph N/A   Clear
5:55 PM 84.2 °F 87.3 °F 68.0 °F 58% 30.12 in 10.0 mi SSW 11.5 mph - N/A   Mostly Cloudy
6:15 PM 86.0 °F 90.4 °F 69.8 °F 58% 30.11 in 10.0 mi SSW 12.7 mph 18.4 mph N/A   Scattered Clouds
6:35 PM 82.4 °F 85.4 °F 68.0 °F 62% 30.11 in 10.0 mi SSW 11.5 mph - N/A   Mostly Cloudy
6:55 PM 84.2 °F 87.3 °F 68.0 °F 58% 30.10 in 10.0 mi SSW 12.7 mph - N/A   Mostly Cloudy
7:15 PM 80.6 °F 83.2 °F 68.0 °F 65% 30.12 in 10.0 mi SSW 10.4 mph - N/A   Scattered Clouds
7:35 PM 78.8 °F - 66.2 °F 65% 30.12 in 10.0 mi SSW 9.2 mph - N/A   Scattered Clouds
7:55 PM 77.0 °F - 66.2 °F 69% 30.15 in 10.0 mi NNW 8.1 mph - N/A   Overcast
8:15 PM 75.2 °F - 64.4 °F 69% 30.15 in 10.0 mi North 6.9 mph - N/A   Mostly Cloudy
8:35 PM 73.4 °F - 64.4 °F 73% 30.13 in 10.0 mi Calm Calm - N/A   Scattered Clouds
8:55 PM 73.4 °F - 64.4 °F 73% 30.11 in 10.0 mi East 6.9 mph - N/A   Clear
9:15 PM 71.6 °F - 64.4 °F 78% 30.13 in 10.0 mi Calm Calm - N/A   Clear
9:35 PM 71.6 °F - 62.6 °F 73% 30.14 in 10.0 mi Calm Calm - N/A   Clear
9:55 PM 69.8 °F - 62.6 °F 78% 30.14 in 10.0 mi Calm Calm - N/A   Clear
10:15 PM 69.8 °F - 62.6 °F 78% 30.15 in 7.0 mi East 4.6 mph - N/A   Clear
10:35 PM 69.8 °F - 62.6 °F 78% 30.15 in 10.0 mi Calm Calm - N/A   Clear
10:55 PM 68.0 °F - 62.6 °F 83% 30.15 in 10.0 mi Calm Calm - N/A   Scattered Clouds
11:15 PM 69.8 °F - 66.2 °F 88% 30.16 in 10.0 mi Calm Calm - N/A   Mostly Cloudy
11:35 PM 69.8 °F - 66.2 °F 88% 30.17 in 10.0 mi Calm Calm - N/A   Overcast
11:55 PM 69.8 °F - 64.4 °F 83% 30.18 in 10.0 mi North 6.9 mph - N/A   Overcast